Regional Weather Roundup
Issued by NWS Albany, NY

Home | Current Version | Previous Version | Text Only | Print | Product List | Glossary On
Versions: 1 2 3 4 5 6 7 8 9 10 11 12 13 14 15 16 17 18 19 20 21 22 23
000
ASUS41 KALY 302110
RWRALY

NEW YORK STATE HOURLY WEATHER ROUNDUP
NATIONAL WEATHER SERVICE ALBANY NY
500 PM EDT THU OCT 30 2014

NOTE: "FAIR" INDICATES FEW OR NO CLOUDS BELOW 12,000 FEET WITH NO
SIGNIFICANT WEATHER AND/OR NO OBSTRUCTIONS TO VISIBILITY.

NYZ032-033-038>043-046>054-057>066-NYZ062>081-302200-
EAST


CITY           SKY/WX    TMP DP  RH WIND       PRES   REMARKS
ALBANY         PTCLDY    52  36  54 NW14G22   29.98R
GLENS FALLS    PTCLDY    50  36  58 CALM      29.95R
POUGHKEEPSIE   MOCLDY    54  35  48 W7        29.96S
NEWBURGH       MOCLDY    54  37  54 NW12      29.98S
MONTGOMERY       N/A     53  36  52 W9        29.97S
WHITE PLAINS   PTCLDY    54  34  46 W7        29.96R
ISLIP          PTCLDY    57  37  47 NW12      29.94S
NEW YORK CITY  PTCLDY    56  38  50 NW17      29.97R
CENTRAL PARK   PTCLDY    55  33  43 NW6       30.00R
$$

NYZ005>009-017-018-044>046-055-056-302200-
CENTRAL


CITY           SKY/WX    TMP DP  RH WIND       PRES   REMARKS
FULTON         CLOUDY    46  34  62 W12       30.04R
SYRACUSE       CLOUDY    47  36  65 W9        30.04R
ROME           CLOUDY    45  36  70 NW12      30.04R
ELMIRA         CLOUDY    48  33  56 NW7       30.03R
BINGHAMTON     PTCLDY    45  31  58 NW8       30.01R
MONTICELLO     MOCLDY    45  36  70 W9        30.00R
$$

NYZ026>034-041>043-302200-
NORTH


CITY           SKY/WX    TMP DP  RH WIND       PRES   REMARKS
WATERTOWN      MOCLDY    46  33  60 W6        30.02R
FORT DRUM      NOT AVBL
MASSENA        CLOUDY    43  31  62 W8        30.02R
SARANAC LAKE   CLOUDY    38  31  76 W6        29.95R WCI  33
PLATTSBURGH    CLOUDY    47  32  56 NW6       29.98R
$$

NYZ001>004-010>016-019>021-302200-
WEST


CITY           SKY/WX    TMP DP  RH WIND       PRES   REMARKS
NIAGARA FALLS  PTSUNNY   47  34  60 N5        30.04S
BUFFALO        CLOUDY    47  35  63 W8        30.04S
DUNKIRK        CLOUDY    47  35  63 W8        30.06S
JAMESTOWN      CLOUDY    43  34  70 NW8       30.04F
WELLSVILLE     CLOUDY    43  32  65 NW7       30.03R
ROCHESTER      PTSUNNY   48  35  60 NW7       30.04S
PENN YAN       CLOUDY    47  33  58 NW3       30.03F
$$

             KEY
       WCI = WIND CHILL INDEX
       VSB = VISIBILITY
       HX  = HEAT INDEX
$$



USA.gov is the U.S. government's official web portal to all federal, state and local government web resources and services.